Weather History for Thomson, GA

Change the Weather History Date:

Monday, October 22, 2012

  Actual Average (KDBN) Record (KDBN)
Temperature  
Mean Temperature 58 °F -  
Max Temperature 77 °F 76 °F 91 °F (1984)
Min Temperature 39 °F 47 °F 31 °F (1976)
Degree Days  
Heating Degree Days 7    
Growing Degree Days 8 (Base 50)    
Moisture  
Dew Point 48 °F    
Average Humidity 73    
Maximum Humidity 100    
Minimum Humidity 37    
Precipitation  
Precipitation 0.00 in - - ()
Sea Level Pressure  
Sea Level Pressure 30.22 in    
Wind  
Wind Speed 1 mph (ENE)    
Max Wind Speed 7 mph    
Max Gust Speed -    
Visibility 10 miles    
Events      
Averages and records for this station are not official NWS values.
T = Trace of Precipitation, MM = Missing Value Source: NWS Daily Summary

Daily Weather History Graph

Daily Weather History Graph

Search for Another Location

Airport:

Trip Planner

Search our weather history database for the weather conditions in past years. The results will help you decide how hot, cold, wet, or windy it might be!

Date:

Astronomy

Oct. 22, 2012 Rise Set
Actual Time 7:40 AM EDT 6:47 PM EDT
Civil Twilight 7:15 AM EDT 7:12 PM EDT
Nautical Twilight 6:46 AM EDT 7:41 PM EDT
Astronomical Twilight 6:17 AM EDT 8:10 PM EDT
Moon 2:36 PM EDT (10/22) 12:46 AM EDT (10/22)
Length of Visible Light 11h 57m
Length of Day
11h 06m
First Quarter, 56% of the Moon is Illuminated
Oct 22
First Quarter
Oct 29
Full
Nov 6
Last Quarter
Nov 13
New
Nov 20
First Quarter

Hourly Weather History & Observations

Time (EDT) Temp. Dew Point Humidity Pressure Visibility Wind Dir Wind Speed Gust Speed Precip Events Conditions
12:55 AM 45.5 °F 45.5 °F 100% 30.20 in 10.0 mi Calm Calm - N/A   Clear
1:15 AM 45.1 °F 45.1 °F 100% 30.20 in - Calm Calm - N/A   Unknown
1:35 AM 44.6 °F 44.6 °F 100% 30.20 in 10.0 mi Calm Calm - N/A   Clear
1:55 AM 43.7 °F 43.7 °F 100% 30.20 in 10.0 mi Calm Calm - N/A   Clear
2:35 AM 43.5 °F 43.5 °F 100% 30.20 in 10.0 mi Calm Calm - N/A   Clear
2:55 AM 43.5 °F 43.5 °F 100% 30.20 in 10.0 mi Calm Calm - N/A   Clear
3:55 AM 42.1 °F 42.1 °F 100% 30.20 in 10.0 mi Calm Calm - N/A   Clear
4:15 AM 42.6 °F 42.6 °F 100% 30.20 in 10.0 mi Calm Calm - N/A   Clear
4:55 AM 41.0 °F 41.0 °F 100% 30.20 in 10.0 mi Calm Calm - N/A   Clear
5:55 AM 39.9 °F 39.9 °F 100% 30.22 in 10.0 mi Calm Calm - N/A   Clear
6:15 AM 40.8 °F 40.8 °F 100% 30.23 in 10.0 mi Calm Calm - N/A   Clear
6:35 AM 40.1 °F 40.1 °F 100% 30.24 in 10.0 mi Calm Calm - N/A   Clear
6:55 AM 40.3 °F 40.3 °F 100% 30.24 in 10.0 mi Calm Calm - N/A   Clear
7:15 AM 40.3 °F 40.3 °F 100% 30.25 in 10.0 mi Calm Calm - N/A   Clear
7:55 AM 39.2 °F 39.2 °F 100% 30.26 in 10.0 mi Calm Calm - N/A   Clear
8:15 AM 39.9 °F 39.9 °F 100% 30.26 in 10.0 mi Calm Calm - N/A   Clear
8:35 AM 42.6 °F 42.6 °F 100% 30.27 in 10.0 mi Calm Calm - N/A   Clear
8:55 AM 45.0 °F 45.0 °F 100% 30.28 in 10.0 mi Calm Calm - N/A   Clear
10:35 AM 62.1 °F 51.1 °F 67% 30.28 in 10.0 mi Calm Calm - N/A   Clear
10:55 AM 63.9 °F 51.3 °F 64% 30.28 in 10.0 mi Calm Calm - N/A   Clear
11:15 AM 66.6 °F 50.0 °F 55% 30.28 in 10.0 mi Calm Calm - N/A   Clear
11:35 AM 67.5 °F 50.5 °F 55% 30.27 in 10.0 mi Calm Calm - N/A   Clear
11:55 AM 68.9 °F 50.0 °F 51% 30.28 in 10.0 mi SSE 3.5 mph - N/A   Clear
12:35 PM 71.6 °F 50.2 °F 47% 30.27 in 10.0 mi Calm Calm - N/A   Clear
12:55 PM 71.4 °F 50.9 °F 48% 30.26 in 10.0 mi Calm Calm - N/A   Clear
1:15 PM 72.7 °F 51.3 °F 47% 30.25 in 10.0 mi ESE 5.8 mph - N/A   Clear
1:35 PM 74.5 °F 51.4 °F 44% 30.24 in 10.0 mi Calm Calm - N/A   Clear
1:55 PM 73.6 °F 51.1 °F 45% 30.23 in 10.0 mi East 3.5 mph - N/A   Clear
2:15 PM 74.1 °F 51.1 °F 44% 30.22 in 10.0 mi SSW 3.5 mph - N/A   Clear
2:35 PM 75.9 °F 51.4 °F 42% 30.21 in 10.0 mi SSW 5.8 mph - N/A   Clear
2:55 PM 76.6 °F 51.3 °F 41% 30.20 in 10.0 mi ENE 4.6 mph - N/A   Clear
3:15 PM 76.3 °F 50.9 °F 41% 30.19 in 10.0 mi SSE 3.5 mph - N/A   Clear
3:35 PM 76.8 °F 50.9 °F 40% 30.18 in 10.0 mi Calm Calm - N/A   Clear
4:15 PM 77.2 °F 51.8 °F 41% 30.18 in 10.0 mi NNE 4.6 mph - N/A   Clear
4:35 PM 77.0 °F 51.6 °F 41% 30.18 in 10.0 mi NNE 5.8 mph - N/A   Clear
4:55 PM 77.0 °F 49.5 °F 38% 30.18 in 10.0 mi NE 6.9 mph - N/A   Clear
5:15 PM 76.5 °F 48.2 °F 37% 30.17 in 10.0 mi NNE 5.8 mph - N/A   Clear
5:35 PM 76.3 °F 49.3 °F 39% 30.17 in 10.0 mi NE 3.5 mph - N/A   Scattered Clouds
6:15 PM 73.8 °F 51.3 °F 45% 30.17 in 10.0 mi North 3.5 mph - N/A   Clear
6:35 PM 70.7 °F 52.0 °F 51% 30.17 in 10.0 mi North 3.5 mph - N/A   Clear
7:15 PM 64.8 °F 52.7 °F 65% 30.19 in 10.0 mi Calm Calm - N/A   Clear
7:35 PM 62.1 °F 52.3 °F 70% 30.20 in 10.0 mi Calm Calm - N/A   Clear
7:55 PM 60.6 °F 52.7 °F 75% 30.21 in 10.0 mi Calm Calm - N/A   Clear
8:35 PM 57.7 °F 52.2 °F 82% 30.21 in 10.0 mi Calm Calm - N/A   Clear
9:35 PM 54.9 °F 51.4 °F 88% 30.22 in 10.0 mi Calm Calm - N/A   Clear
9:55 PM 54.1 °F 50.9 °F 89% 30.23 in 10.0 mi Calm Calm - N/A   Clear
10:15 PM 53.4 °F 50.9 °F 91% 30.23 in 10.0 mi Calm Calm - N/A   Clear
10:55 PM 51.6 °F 50.2 °F 95% 30.23 in 10.0 mi Calm Calm - N/A   Clear
11:35 PM 51.4 °F 50.9 °F 98% 30.23 in 10.0 mi Calm Calm - N/A   Clear